OCN16Y BIKF-EDDM

Flight info

Callsign OCN16Y
Flight time N/A
Altitude 37000
Route OSKUM3A OSKUM DCT RATSU/N0436F370 DCT BARKU DCT SMOKI DCT UPNAL DCT ROLUM DCT TOPPA DCT AMGOD DCT PETIK P62 PAM DCT OTMEC DCT MISGO DCT DOJOH DCT DODEN/N0417F330 DCT TABUM DCT BOMBI T104 HAREM/N0378F270 T104 ROKIL ROKIL1A
Aircraft A320/M-SDE2E3FGIJ1LORWXYZ/HB1

Departure

Time 2026-05-04 15:49
Airport Keflavik International Airport (BIKF)

Arrival

Time N/A
Airport Munich Airport (EDDM)
Time Latitude Longitude Altitude Speed Heading
2026-05-04 15:17 63.99280 -22.62305 141 ft 0 kts
2026-05-04 15:36 63.99271 -22.62305 140 ft 4 kts
2026-05-04 15:36 63.99244 -22.62305 141 ft 4 kts
2026-05-04 15:37 63.99217 -22.62305 145 ft 4 kts
2026-05-04 15:37 63.99195 -22.62305 142 ft 4 kts
2026-05-04 15:37 63.99175 -22.62322 142 ft 4 kts 68°
2026-05-04 15:37 63.99172 -22.62376 142 ft 4 kts 90°
2026-05-04 15:38 63.99172 -22.62393 142 ft 0 kts 90°
2026-05-04 15:40 63.99172 -22.62385 142 ft 2 kts 90°
2026-05-04 15:40 63.99173 -22.62300 142 ft 8 kts 90°
2026-05-04 15:40 63.99173 -22.62127 142 ft 13 kts 90°
2026-05-04 15:41 63.99173 -22.61943 142 ft 11 kts 90°
2026-05-04 15:41 63.99173 -22.61797 145 ft 9 kts 90°
2026-05-04 15:41 63.99173 -22.61641 148 ft 12 kts 90°
2026-05-04 15:41 63.99174 -22.61406 154 ft 17 kts 90°
2026-05-04 15:42 63.99173 -22.61124 160 ft 17 kts 90°
2026-05-04 15:42 63.99132 -22.60940 165 ft 12 kts 169°
2026-05-04 15:42 63.99046 -22.60938 169 ft 14 kts 180°
2026-05-04 15:42 63.98922 -22.60939 170 ft 20 kts 180°
2026-05-04 15:43 63.98774 -22.60939 166 ft 23 kts 180°
2026-05-04 15:43 63.98607 -22.60939 168 ft 24 kts 180°
2026-05-04 15:43 63.98440 -22.60941 164 ft 23 kts 181°
2026-05-04 15:43 63.98285 -22.60941 165 ft 22 kts 180°
2026-05-04 15:44 63.98138 -22.60942 166 ft 22 kts 180°
2026-05-04 15:44 63.97978 -22.60941 169 ft 24 kts 180°
2026-05-04 15:44 63.97806 -22.60940 170 ft 26 kts 180°
2026-05-04 15:44 63.97618 -22.60940 168 ft 28 kts 180°
2026-05-04 15:45 63.97422 -22.60941 165 ft 26 kts 180°
2026-05-04 15:45 63.97228 -22.60940 159 ft 29 kts 180°
2026-05-04 15:45 63.97061 -22.60940 153 ft 22 kts 180°
2026-05-04 15:45 63.96906 -22.60941 147 ft 23 kts 180°
2026-05-04 15:46 63.96800 -22.60941 143 ft 23 kts 180°
2026-05-04 15:46 63.96635 -22.60941 137 ft 17 kts 180°
2026-05-04 15:46 63.96518 -22.60941 135 ft 16 kts 179°
2026-05-04 15:46 63.96460 -22.60811 138 ft 11 kts 91°
2026-05-04 15:47 63.96461 -22.60697 141 ft 5 kts 89°
2026-05-04 15:47 63.96464 -22.60586 144 ft 10 kts 71°
2026-05-04 15:47 63.96519 -22.60542 146 ft 8 kts 359°
2026-05-04 15:47 63.96532 -22.60542 147 ft 0 kts 359°
2026-05-04 15:48 63.96601 -22.60543 149 ft 32 kts
2026-05-04 15:49 63.97061 -22.60542 161 ft 97 kts
2026-05-04 15:49 63.97921 -22.60542 172 ft 148 kts 360°
2026-05-04 15:49 63.98975 -22.60543 754 ft 151 kts 360°
2026-05-04 15:49 64.00020 -22.60538 1493 ft 153 kts
2026-05-04 15:50 64.01159 -22.60531 1857 ft 175 kts 360°
2026-05-04 15:50 64.02430 -22.60534 2189 ft 195 kts 360°
2026-05-04 15:50 64.03817 -22.60535 2912 ft 200 kts
2026-05-04 15:50 64.05210 -22.60403 3763 ft 203 kts 12°
2026-05-04 15:51 64.06384 -22.58619 4433 ft 217 kts 52°
2026-05-04 15:51 64.06875 -22.55166 4814 ft 246 kts 82°
2026-05-04 15:51 64.06871 -22.51122 5452 ft 260 kts 90°
2026-05-04 15:51 64.06717 -22.46946 6240 ft 268 kts 92°
2026-05-04 15:52 64.06421 -22.42700 7028 ft 275 kts 105°
2026-05-04 15:52 64.05633 -22.38655 7792 ft 284 kts 120°